Regional Weather Roundup
Issued by NWS Glasgow, MT

Home | Current Version | Previous Version | Text Only | Print | Product List | Glossary On
Versions: 1 2 3 4 5 6 7 8 9 10 11 12 13 14 15 16 17 18 19 20 21 22 23 24 25 26 27 28 29 30 31 32 33 34 35 36 37 38 39 40 41 42 43 44 45 46 47 48 49 50
000
ASUS45 KGGW 061715
RWRGGW
HOURLY REGIONAL WEATHER ROUNDUP FOR NORTHEAST MONTANA
NATIONAL WEATHER SERVICE GLASGOW MONTANA
1100 AM MDT FRI MAY 06 2016

NOTE: "FAIR" INDICATES FEW OR NO CLOUDS BELOW 12,000 FEET WITH NO
SIGNIFICANT WEATHER AND/OR OBSTRUCTIONS TO VISISBILITY.

NORTHEAST MONTANA


CITY           SKY/WX    TMP DP  RH WIND       PRES   REMARKS
GLASGOW        MOSUNNY   62  43  49 N14       30.18S
PLENTYWOOD       N/A     61  39  44 N14G23      N/A
WOLF POINT     CLOUDY    62  45  53 N10       30.16R
JORDAN           N/A     58  45  62 N13       30.19R
WINNETT          N/A     55  45  68 NW13G21     N/A
SIDNEY         CLOUDY    61  43  51 N20G26    30.11R
GLENDIVE       PTSUNNY   63  43  48 N21G26    30.12S
MALTA            N/A     59  37  44 N8          N/A
SCOBEY           N/A     60  34  37 N16G24    30.14R
OPHEIM           N/A     54  32  43 CALM      30.01S

FORT PECK REPORTS


CITY           SKY/WX    TMP DP  RH WIND       PRES   REMARKS
FORT PECK        N/A     60  46  59 NW13        N/A
THE PINES        N/A     60  45  57 N9G17       N/A

SOUTHEAST MONTANA


CITY           SKY/WX    TMP DP  RH WIND       PRES   REMARKS
BILLINGS       CLOUDY    57  42  57 NE13      30.22R
MILES CITY     CLOUDY    66  41  40 NE18      30.12R
BAKER          SUNNY     68  43  40 NE24      30.08S
LIVINGSTON     CLOUDY    56  41  57 E24G31    30.17S HAZE

CENTRAL MONTANA


CITY           SKY/WX    TMP DP  RH WIND       PRES   REMARKS
HAVRE          CLOUDY    55  39  54 MISG      30.28R
LEWISTOWN      CLOUDY    48  44  86 VRB3      30.27R
GREAT FALLS    CLOUDY    51  43  74 N10       30.28S
CUT BANK       CLOUDY    51  37  58 NE8       30.31R
HELENA         CLOUDY    52  42  69 N15       30.22S
BUTTE          CLOUDY    53  41  63 NW8       30.16F
BOZEMAN        CLOUDY    60  43  53 NE18G25   30.14S HAZE

WESTERN MONTANA


CITY           SKY/WX    TMP DP  RH WIND       PRES   REMARKS
MISSOULA       CLOUDY    63  42  46 E18       30.12F
KALISPELL      NOT AVBL

NORTH DAKOTA


CITY           SKY/WX    TMP DP  RH WIND       PRES   REMARKS
WILLISTON      CLOUDY    60  44  55 N18       30.11R
DICKINSON      MOSUNNY   67  45  45 N20       30.02R
MINOT          CLOUDY    71  42  35 N24G30    29.99R
BISMARCK       MOSUNNY   73  50  44 N16       29.94R

SOUTHERN SASKATCHEWAN


CITY           SKY/WX    TMP DP  RH WIND       PRES   REMARKS
REGINA         MOSUNNY   63  34  34 NW16G24   30.15R
MOOSE JAW      PTSUNNY   63  36  36 NW13G18   30.18S
ESTEVAN        PTSUNNY   66  43  42 N22G31    30.08R
SWIFT CURRENT  SUNNY     61  30  31 NW10G17   30.21S




USA.gov is the U.S. government's official web portal to all federal, state and local government web resources and services.